Back to catalog

AZERSPACE 2/INTELSAT 38

AliveCommunicationsGEO
NORAD 43632·PAYLOAD·🇦🇿 Azerbaijan

Launched Sep 25, 2018 from Guiana Space Centre

Loading…

TLE

FreshSource: CelesTrak SupGP

Epoch: Sep 14, 2026, 00:00 UTC

1 43632C 18074A   26257.00000000 -.00004076  00000+0  00000+0 0  2573
2 43632   0.0037 210.6622 0001336 309.5428 237.8899  1.00271802    11

Track AZERSPACE 2/INTELSAT 38 in real time with AllMySat

Download on the App Store